Weather History for KCIU - December, 2011

Change the Weather History Date:

Tuesday, December 6, 2011

  Actual Average Record
Temperature  
Mean Temperature 20 °F -  
Max Temperature 24 °F 32 °F 55 °F (2001)
Min Temperature 15 °F 17 °F -8 °F (1991)
Degree Days  
Heating Degree Days 46    
Moisture  
Dew Point 14 °F    
Average Humidity 77    
Maximum Humidity 86    
Minimum Humidity 68    
Precipitation  
Precipitation 0.00 in - - ()
Sea Level Pressure  
Sea Level Pressure 30.23 in    
Wind  
Wind Speed 7 mph (NNW)    
Max Wind Speed 10 mph    
Max Gust Speed -    
Visibility 10 miles    
Events      
Averages and records for this station are not official NWS values.
T = Trace of Precipitation, MM = Missing Value Source: NWS Daily Summary

Daily Weather History Graph

Daily Weather History Graph

Search for Another Location

Airport or City:

Trip Planner

Search our weather history database for the weather conditions in past years. The results will help you decide how hot, cold, wet, or windy it might be!

Date:

Astronomy

Dec. 06, 2011 Rise Set
Actual Time 8:05 AM EST 4:52 PM EST
Civil Twilight 7:31 AM EST 5:26 PM EST
Nautical Twilight 6:53 AM EST 6:04 PM EST
Astronomical Twilight 6:17 AM EST 6:40 PM EST
Moon 2:25 PM EST 4:15 AM EST
Length of Visible Light 9h 55m
Length of Day
8h 46m
Waxing Gibbous, 86% of the Moon is Illuminated
Dec 6
Waxing Gibbous
Dec 10
Full
Dec 17
Last Quarter
Dec 24
New
Jan 1
First Quarter

Hourly Weather History & Observations

Time (EST) Temp. Windchill Dew Point Humidity Pressure Visibility Wind Dir Wind Speed Gust Speed Precip Events Conditions
12:15 AM 23.0 °F 13.9 °F 15.8 °F 74% 30.32 in 10.0 mi North 8.1 mph - N/A   Overcast
12:35 AM 23.0 °F 13.9 °F 15.8 °F 74% 30.32 in 10.0 mi North 8.1 mph - N/A   Overcast
12:55 AM 23.0 °F 14.7 °F 15.8 °F 74% 30.32 in 10.0 mi North 6.9 mph - N/A   Overcast
1:15 AM 21.2 °F 12.6 °F 15.8 °F 80% 30.31 in 10.0 mi North 6.9 mph - N/A   Overcast
2:15 AM 21.2 °F 14.9 °F 14.0 °F 74% 30.31 in 10.0 mi NNE 4.6 mph - N/A   Overcast
2:35 AM 21.2 °F 12.6 °F 14.0 °F 74% 30.30 in 10.0 mi North 6.9 mph - N/A   Overcast
2:55 AM 19.4 °F 10.4 °F 14.0 °F 80% 30.30 in 10.0 mi NNE 6.9 mph - N/A   Overcast
3:15 AM 19.4 °F 10.4 °F 12.2 °F 74% 30.30 in 10.0 mi NNE 6.9 mph - N/A   Overcast
3:35 AM 19.4 °F 10.4 °F 12.2 °F 74% 30.31 in 10.0 mi North 6.9 mph - N/A   Overcast
3:55 AM 19.4 °F 8.6 °F 12.2 °F 74% 30.30 in 10.0 mi North 9.2 mph - N/A   Overcast
4:35 AM 19.4 °F 7.9 °F 14.0 °F 80% 30.30 in 10.0 mi North 10.4 mph - N/A   Overcast
4:55 AM 19.4 °F 10.4 °F 14.0 °F 80% 30.30 in 10.0 mi North 6.9 mph - N/A   Overcast
5:15 AM 19.4 °F 9.5 °F 12.2 °F 74% 30.30 in 10.0 mi North 8.1 mph - N/A   Overcast
5:35 AM 17.6 °F 6.4 °F 12.2 °F 79% 30.30 in 10.0 mi North 9.2 mph - N/A   Overcast
5:55 AM 17.6 °F 7.3 °F 12.2 °F 79% 30.30 in 10.0 mi North 8.1 mph - N/A   Overcast
6:15 AM 17.6 °F 5.7 °F 12.2 °F 79% 30.30 in 10.0 mi North 10.4 mph - N/A   Overcast
6:35 AM 17.6 °F 6.4 °F 12.2 °F 79% 30.30 in 10.0 mi North 9.2 mph - N/A   Overcast
6:55 AM 17.6 °F 6.4 °F 12.2 °F 79% 30.30 in 10.0 mi North 9.2 mph - N/A   Overcast
7:15 AM 17.6 °F 9.3 °F 12.2 °F 79% 30.30 in 10.0 mi North 5.8 mph - N/A   Overcast
8:15 AM 15.8 °F 5.1 °F 10.4 °F 79% 30.29 in 10.0 mi NNE 8.1 mph - N/A   Overcast
8:35 AM 15.8 °F 8.6 °F 10.4 °F 79% 30.29 in 10.0 mi NNE 4.6 mph - N/A   Overcast
8:55 AM 15.8 °F 7.2 °F 10.4 °F 79% 30.29 in 10.0 mi North 5.8 mph - N/A   Overcast
9:15 AM 15.8 °F 7.2 °F 10.4 °F 79% 30.29 in 10.0 mi NNE 5.8 mph - N/A   Overcast
9:35 AM 15.8 °F 6.1 °F 12.2 °F 86% 30.29 in 10.0 mi North 6.9 mph - N/A   Overcast
9:55 AM 15.8 °F 8.6 °F 12.2 °F 86% 30.28 in 8.0 mi North 4.6 mph - N/A   Overcast
10:15 AM 15.8 °F 7.2 °F 12.2 °F 86% 30.28 in 9.0 mi North 5.8 mph - N/A   Overcast
10:35 AM 17.6 °F 8.2 °F 12.2 °F 79% 30.28 in 10.0 mi North 6.9 mph - N/A   Overcast
10:55 AM 17.6 °F 8.2 °F 12.2 °F 79% 30.28 in 7.0 mi NNE 6.9 mph - N/A   Overcast
11:35 AM 17.6 °F 9.3 °F 12.2 °F 79% 30.26 in 8.0 mi NNE 5.8 mph - N/A   Overcast
11:55 AM 17.6 °F 12.3 °F 12.2 °F 79% 30.25 in 10.0 mi North 3.5 mph - N/A   Overcast
12:15 PM 19.4 °F - 14.0 °F 80% 30.24 in 10.0 mi Calm Calm - N/A   Overcast
12:35 PM 19.4 °F 10.4 °F 15.8 °F 86% 30.23 in 10.0 mi NW 6.9 mph - N/A   Overcast
12:55 PM 21.2 °F 13.6 °F 17.6 °F 86% 30.22 in 10.0 mi NW 5.8 mph - N/A   Overcast
1:15 PM 21.2 °F 16.4 °F 17.6 °F 86% 30.21 in 10.0 mi WNW 3.5 mph - N/A   Overcast
1:35 PM 21.2 °F 13.6 °F 17.6 °F 86% 30.20 in 10.0 mi WNW 5.8 mph - N/A   Overcast
1:55 PM 23.0 °F 15.8 °F 17.6 °F 80% 30.19 in 10.0 mi WNW 5.8 mph - N/A   Overcast
2:15 PM 23.0 °F 15.8 °F 17.6 °F 80% 30.18 in 10.0 mi NNW 5.8 mph - N/A   Overcast
2:35 PM 24.8 °F 15.3 °F 17.6 °F 74% 30.18 in 10.0 mi NNW 9.2 mph - N/A   Overcast
3:15 PM 24.8 °F 17.9 °F 17.6 °F 74% 30.16 in 10.0 mi WNW 5.8 mph - N/A   Overcast
3:35 PM 24.8 °F 17.9 °F 15.8 °F 69% 30.16 in 10.0 mi NNW 5.8 mph - N/A   Overcast
3:55 PM 24.8 °F 17.9 °F 17.6 °F 74% 30.15 in 10.0 mi NNW 5.8 mph - N/A   Overcast
4:15 PM 24.8 °F 17.9 °F 17.6 °F 74% 30.14 in 10.0 mi NNW 5.8 mph - N/A   Overcast
4:35 PM 24.8 °F 16.9 °F 15.8 °F 69% 30.14 in 10.0 mi NNW 6.9 mph - N/A   Overcast
4:56 PM 24.8 °F 17.9 °F 15.8 °F 69% 30.14 in 10.0 mi NW 5.8 mph - N/A   Overcast
5:15 PM 24.8 °F 17.9 °F 15.8 °F 69% 30.13 in 10.0 mi WNW 5.8 mph - N/A   Overcast
5:35 PM 23.0 °F 18.4 °F 15.8 °F 74% 30.13 in 10.0 mi West 3.5 mph - N/A   Overcast
6:35 PM 23.0 °F 15.8 °F 14.0 °F 68% 30.12 in 10.0 mi WNW 5.8 mph - N/A   Overcast
6:55 PM 23.0 °F 17.0 °F 14.0 °F 68% 30.12 in 10.0 mi West 4.6 mph - N/A   Overcast
7:15 PM 21.2 °F 13.6 °F 14.0 °F 74% 30.12 in 10.0 mi WNW 5.8 mph - N/A   Overcast
7:35 PM 21.2 °F 13.6 °F 14.0 °F 74% 30.11 in 10.0 mi West 5.8 mph - N/A   Overcast
7:55 PM 21.2 °F 16.4 °F 14.0 °F 74% 30.11 in 10.0 mi West 3.5 mph - N/A   Overcast
8:15 PM 21.2 °F - 14.0 °F 74% 30.10 in 10.0 mi Calm Calm - N/A   Overcast
9:15 PM 21.2 °F - 14.0 °F 74% 30.07 in 10.0 mi Calm Calm - N/A   Overcast
9:35 PM 21.2 °F - 14.0 °F 74% 30.06 in 10.0 mi Calm Calm - N/A   Overcast
9:55 PM 21.2 °F - 15.8 °F 80% 30.05 in 10.0 mi Calm Calm - N/A   Overcast
10:15 PM 21.2 °F - 15.8 °F 80% 30.05 in 10.0 mi Calm Calm - N/A   Overcast
10:35 PM 21.2 °F - 15.8 °F 80% 30.04 in 10.0 mi Calm Calm - N/A   Overcast
10:55 PM 21.2 °F - 15.8 °F 80% 30.03 in 10.0 mi Calm Calm - N/A   Overcast
11:15 PM 21.2 °F - 15.8 °F 80% 30.02 in 10.0 mi Calm Calm - N/A   Overcast
11:35 PM 21.2 °F - 15.8 °F 80% 30.02 in 10.0 mi Calm Calm - N/A   Overcast